Tracking 31028 objects as of 17-Jul-2025
HD Live streaming from Space Station
objects crossing your sky now

STARLINK-5477

Track STARLINK-5477 now!
10-day predictions
STARLINK-5477 is classified as:


NORAD ID: 55659
Int'l Code: 2023-021AH
Perigee: 577.2 km
Apogee: 581.2 km
Inclination: 70.0 °
Period: 96.1 minutes
Semi major axis: 6950 km
RCS: Unknown
Launch date: February 17, 2023
Source: United States (US)
Launch site: AIR FORCE WESTERN TEST RANGE (AFWTR)
Your satellite tracking list
Your tracking list is empty




NASA's NSSDC Master Catalog

Two Line Element Set (TLE):
1 55659U 23021AH  25197.90998803  .00000494  00000-0  49209-4 0  9993
2 55659  69.9997  39.0771 0002862 268.3463  91.7368 14.98331387133950
Source of the keplerian elements: AFSPC